User: anonymous   Login
Location: Young's Pond
(41.2695°N, 72.7766°W)
Time: 15:03:11
(UTC-05:00)
Language:

Spot 4 - Orbit

View from above orbital plane
View from above orbital plane
View from above satellite
View from above satellite

Ground track
Ground track

The orbit data is extracted from the following two-line orbital elements,

1 25260U 98017A   16040.94154997 +.00000155 +00000-0 +48284-4 0  9990
2 25260 098.3940 117.9101 0012993 354.1061 005.9976 14.53373808930206
Epoch (UTC): 09 February 2016 22:35:49
Eccentricity: 0.0012993
inclination: 98.3940°
perigee height: 705 km
apogee height: 724 km
right ascension of ascending node: 117.9101°
argument of perigee: 354.1061°
revolutions per day: 14.53373808
mean anomaly at epoch: 5.9976°
orbit number at epoch: 93020

The dashed part of the orbit path shows where the satellite is in the earth's shadow,  

DLR